Location: Nakusp
(50.2330°N, 117.8000°W)
Time: 21:00:17
(UTC-08:00)

Daily predictions for brighter satellites

Satellite Brightness Start Highest point End
(mag) Time Altitude Azimuth Time Altitude Azimuth Time Altitude Azimuth
Cosmos 2219 Rocket 2.3 16:56:28 10° SSW 17:02:03 64° ESE 17:07:37 10° NE
NOSS 0 Rocket 4.3 16:57:05 10° S 17:03:02 50° ESE 17:09:00 10° NE
ALOS 4.0 17:04:32 10° E 17:06:34 13° NE 17:08:37 10° NNE
Cosmos 1455 3.7 17:05:27 10° NNE 17:08:02 17° ENE 17:10:37 10° ESE
Cosmos 1328 4.1 17:05:09 10° SSE 17:08:55 45° E 17:12:43 10° NNE
Cosmos 1674 3.0 17:05:19 10° SSW 17:09:09 74° W 17:13:03 10° N
Cosmos 2333 Rocket 2.4 17:03:40 10° S 17:09:11 58° ESE 17:14:44 10° NE
Cosmos 2322 Rocket 4.1 17:06:05 10° W 17:10:26 22° NW 17:14:47 10° NNE
COSMOS 2441 4.4 17:06:45 10° SSE 17:11:31 60° ENE 17:16:17 10° N
Abrixas 4.3 17:09:17 10° SSW 17:11:35 21° SSE 17:13:54 10° E
Cosmos 2278 Rocket 2.6 17:06:29 10° NNW 17:12:10 74° WSW 17:17:49 10° SSE
Tsikada Rocket 4.4 17:08:00 10° SSW 17:14:24 76° WNW 17:20:52 10° N
Cosmos 1242 Rocket 4.4 17:17:06 10° NE 17:18:12 11° ENE 17:19:09 10° ENE
SJ-7 4.4 17:14:16 10° SSE 17:18:17 87° WSW 17:22:19 10° NNW
MSX 3.8 17:12:53 10° SSE 17:18:37 81° ENE 17:24:23 10° NNW
MOS 1 4.4 17:13:21 10° SSE 17:19:01 85° WSW 17:24:45 10° NNW
CENTAUR R/B 2.9 17:13:07 10° SW 17:19:24 71° NW 17:26:38 10° NE
Timation 1 Rocket 4.3 17:13:41 10° NNW 17:19:45 79° ENE 17:25:47 10° SE
Cosmos 1125 Rocket 4.2 17:16:32 10° NNW 17:21:40 60° WSW 17:26:45 10° S
SMAP 3.3 17:17:19 10° S 17:21:58 76° WSW 17:26:40 10° NNW
Cosmos 1703 4.4 17:19:33 10° SE 17:22:37 23° E 17:25:42 10° NE
USA 116 3.1 17:19:29 10° NNE 17:22:39 63° ESE 17:25:44 10° S
Cosmos 371 Rocket 3.3 17:18:37 10° SSW 17:23:26 84° ESE 17:28:17 10° NNE
Cosmos 1634 Rocket 4.1 17:18:17 10° N 17:24:31 84° W 17:30:40 10° S
CZ-4 R/B 2.2 17:22:31 10° S 17:26:19 53° W 17:30:12 10° NNW
SJ-6B 4.0 17:24:27 10° ESE 17:27:47 24° ENE 17:31:07 10° N
Cosmos 841 Rocket 4.0 17:22:55 10° SW 17:28:10 65° WNW 17:33:26 10° NNE
Cosmos 1707 Rocket 4.0 17:24:17 10° N 17:28:20 37° ENE 17:32:21 10° SE
Cosmos 1300 2.8 17:24:31 10° NNW 17:28:22 80° W 17:32:12 10° S
COSMO-SKYMED 1 3.2 17:27:08 10° NNE 17:31:08 34° E 17:35:06 10° SSE
MONITOR-E 4.1 17:28:09 10° SSE 17:31:18 69° ENE 17:34:28 10° N
Cosmos 2151 2.9 17:28:54 10° S 17:33:03 65° E 17:37:14 10° NNE
YAOGAN 1 3.1 17:29:55 10° S 17:34:13 65° WSW 17:38:33 10° NNW
Cosmos 2084 Rocket 4.3 17:31:24 10° NNW 17:34:37 25° NNE 17:36:52 15° ENE
Cosmos 2369 Rocket 3.3 17:34:42 10° NNW 17:39:20 25° NE 17:42:51 14° E
Thor Agena Rocket 3.5 17:34:49 10° NNE 17:40:06 77° ESE 17:45:17 10° SSW
Cosmos 2237 Rocket 2.2 17:34:46 10° SSW 17:40:23 77° ESE 17:46:04 10° NNE
FREGAT/IRIS 3.8 17:40:33 10° ESE 17:43:02 23° ENE 17:45:32 10° NNE
Meteor 1-27 4.4 17:37:47 10° NNW 17:43:40 87° WSW 17:49:31 10° S
Cosmos 1666 Rocket 4.4 17:40:08 10° SSE 17:43:53 29° E 17:47:43 10° NNE
Meteor 2-10 4.1 17:40:05 10° NNW 17:45:13 84° WSW 17:50:28 10° S
Cosmos 44 Rocket 3.7 17:41:20 10° SW 17:46:26 67° NW 17:51:14 11° NE
SPOT 3 Rocket 4.5 17:43:48 10° S 17:48:49 52° W 17:53:54 10° NNW
SL-14 R/B 3.3 17:44:59 10° S 17:48:58 86° WNW 17:53:00 10° N
SL-16 R/B 2.6 17:43:43 10° S 17:49:00 43° ESE 17:53:49 12° NE
Cosmos 1484 Rocket 3.0 17:46:44 10° S 17:50:42 76° WSW 17:54:44 10° NNW
COSMOS 2428 3.9 17:46:01 10° WSW 17:51:22 40° NW 17:56:45 10° NNE
Meteor 1-28 Rocket 3.7 17:49:37 10° NNE 17:53:08 38° E 17:56:37 10° SSE
Cosmos 1340 Rocket 2.7 17:49:16 10° S 17:53:09 63° E 17:57:03 10° NNE
Resurs 01 Rocket 2.6 17:51:10 10° ESE 17:54:52 26° ENE 17:58:35 10° N
Lacrosse 4 Rocket 1.3 17:52:58 10° NNW 17:57:01 62° NE 18:01:03 10° SE
Cosmos 304 Rocket 3.8 17:52:27 10° S 17:57:10 58° ESE 18:01:35 12° NNE
Cosmos 2297 4.1 17:51:39 10° NNW 17:57:20 68° WSW 18:03:01 10° SSE
Blok-2BL 3.5 17:55:01 10° NW 17:58:15 45° NE 17:59:40 27° E
Cosmos 1869 3.7 17:59:22 10° N 18:03:12 40° ENE 18:07:01 10° SE
Aureole 2 Rocket 2.9 18:00:52 10° SSW 18:04:46 80° WNW 18:08:46 11° NNE
Cosmos 1867 4.3 17:59:55 10° NNW 18:04:53 33° NNE 18:07:15 24° ENE
CZ-4C R/B 3.6 17:59:24 10° NW 18:05:04 31° NNE 18:08:40 20° ENE
Cosmos 2279 Rocket 4.4 18:04:28 10° NNW 18:10:38 66° W 18:16:47 10° S
FENGYUN 3A 3.9 18:10:04 10° SE 18:15:09 46° ENE 18:20:17 10° N
METEOR-M 4.0 18:09:52 10° SSE 18:15:12 78° ENE 18:20:35 10° NNW
Cosmos 2058 3.4 18:12:27 10° SSW 18:16:29 59° WNW 18:20:34 10° N
Cosmos 540 Rocket 4.1 18:11:52 10° SW 18:16:57 56° WNW 18:22:03 10° NNE
Cosmos 2084 4.4 18:14:23 10° WSW 18:17:56 36° NW 18:20:03 20° NNE
SKYMED 2 3.6 18:15:00 10° NNE 18:19:22 82° WNW 18:23:43 10° SSW
Cosmos 2242 Rocket 3.5 18:15:53 10° N 18:20:17 64° ENE 18:24:42 10° SSE
Cosmos 1805 Rocket 3.6 18:17:28 10° S 18:21:56 87° W 18:26:26 10° N
Cosmos 773 Rocket 4.2 18:17:59 10° S 18:22:54 46° ESE 18:25:16 28° NE
NOAA 12 4.1 18:18:13 10° SSE 18:23:29 86° WSW 18:28:48 10° NNW
Cosmos 1461 2.7 18:19:30 10° SSW 18:23:37 74° SE 18:25:03 38° NE
Cosmos 2360 Rocket 4.4 18:19:56 10° WNW 18:23:37 17° NNW 18:27:20 10° N
Lacrosse 5 2.6 18:19:58 10° WNW 18:24:46 40° N 18:26:32 30° NE
Cosmos 1626 2.0 18:22:18 10° S 18:26:03 85° E 18:28:54 17° NNE
ATLAS 5 CENTAUR R/B 3.0 18:22:01 10° NW 18:27:14 36° NNE 18:28:57 30° ENE
Orbus 7S? 4.3 18:26:18 10° WNW 18:30:04 72° SW 18:38:40 10° SE
ATLAS 3B R/B 3.8 18:24:27 10° NW 18:30:35 29° NNE 18:33:09 23° NE
USA 215 3.4 18:28:15 12° SE 18:34:20 73° SW 18:40:55 10° WNW
Sich 1 3.0 18:30:14 10° S 18:34:41 85° E 18:39:06 10° N
Nadezhda 4 Rocket 3.9 18:28:51 10° S 18:35:08 80° E 18:41:30 10° NNE
Cosmos 1356 Rocket 3.3 18:32:25 10° SSW 18:36:24 81° W 18:39:19 18° N
Cosmos 44 4.2 18:32:40 10° WSW 18:37:37 45° NW 18:40:34 21° NNE
Cosmos 2026 Rocket 4.3 18:33:20 10° SSE 18:38:59 39° E 18:40:54 31° NE
ALOS 2.1 18:38:34 10° SSE 18:43:13 75° ENE 18:47:54 10° N
Cosmos 1455 3.2 18:40:21 10° NNW 18:44:01 46° W 18:47:41 10° SSW
Cosmos 1943 Rocket 2.9 18:39:33 10° NNW 18:44:17 33° NE 18:44:17 33° NE
Aureole 1 Rocket 4.0 18:39:16 10° S 18:45:04 69° ESE 18:52:38 10° NNE
Cosmos 1633 Rocket 3.0 18:40:48 10° S 18:45:13 85° W 18:48:43 16° N
Cosmos 2219 Rocket 3.8 18:41:33 10° WSW 18:46:26 29° NW 18:51:20 10° NNE
Abrixas 3.7 18:43:50 10° WSW 18:45:53 37° SW 18:45:53 37° SW
Cosmos 1242 Rocket 2.7 18:50:12 10° NNW 18:53:29 65° WNW 18:53:29 65° WNW
Cosmos 1603 3.7 18:48:22 10° S 18:53:46 51° ESE 18:54:02 51° E
Cosmos 2333 Rocket 3.7 18:48:45 10° WSW 18:53:47 32° NW 18:58:34 11° NNE
Cosmos 292 Rocket 4.3 18:49:13 10° S 18:52:44 41° SSE 18:52:44 41° SSE
HJ-1C 4.5 18:55:30 39° NNW 18:55:30 39° NNW 18:57:49 10° NNW
Helios 1A 4.3 18:56:36 28° N 18:56:36 28° N 18:58:43 10° N
Cosmos 2263 4.3 18:49:54 10° NNW 18:55:23 51° NE 18:55:38 50° ENE
Cosmos 1184 Rocket 3.5 18:52:24 10° SSW 18:55:30 55° W 18:55:30 55° W
FengYun 1-2 T 4.2 18:51:10 10° SSE 18:56:44 84° WSW 19:02:17 10° NNW
BREEZE-M DEB (TANK) 4.2 18:54:54 10° SW 18:55:53 22° SW 18:55:53 22° SW
Cosmos 1553 Rocket 4.1 18:51:33 10° N 18:57:31 48° ENE 18:57:35 48° ENE
Cosmos 1092 Rocket 3.9 18:51:18 10° S 18:57:38 85° E 19:04:01 10° N
Cosmos 972 Rocket 4.0 18:53:44 10° NNW 18:58:55 73° ENE 19:00:40 44° SE
SJ-6B 4.2 18:58:20 10° S 19:02:15 41° W 19:06:12 10° NNW
Cosmos 1862 Rocket 3.5 18:59:14 10° NNW 19:03:40 82° W 19:04:40 53° S
COSMO-SKYMED 1 4.4 19:03:26 10° N 19:07:14 30° WNW 19:11:02 10° SW
CENTAUR R/B 3.9 19:05:21 10° W 19:11:20 33° NNW 19:14:43 23° NNE
Spot 2 Rocket 3.7 19:06:39 10° S 19:11:41 70° WSW 19:16:44 10° NNW
Cosmos 2056 Rocket 4.0 19:07:08 10° NNW 19:11:02 46° NNE 19:11:02 46° NNE
Cosmos 2084 Rocket 4.1 19:10:37 10° NW 19:13:28 46° WNW 19:13:28 46° WNW
Iridium 4 Rocket 3.5 19:11:01 10° SSW 19:15:20 58° W 19:17:05 32° NNW
Cosmos 1624 Rocket 4.2 19:11:32 10° NNW 19:16:00 57° NNE 19:16:00 57° NNE
Cosmos 2195 Rocket 4.3 19:14:35 10° S 19:20:42 84° E 19:26:55 10° N
USA 229 DEB 3.6 19:13:51 10° SW 19:20:42 79° SE 19:22:08 59° ENE
USA 229 3.6 19:13:57 10° SW 19:20:48 79° SE 19:22:11 60° ENE
Cosmos 2369 Rocket 2.1 19:18:22 10° NNW 19:24:05 82° WSW 19:24:42 71° S
Cosmos 2237 Rocket 4.0 19:20:23 10° W 19:25:03 26° NW 19:28:45 14° N
Resurs 1-3 4.4 19:30:46 50° WSW 19:30:51 50° W 19:35:10 10° NNW
Resurs 01 Rocket 2.8 19:27:18 12° SSW 19:31:10 42° W 19:35:26 10° NNW
SL-16 R/B 3.3 19:27:51 10° WSW 19:33:11 40° NW 19:35:45 26° N
Lacrosse 4 Rocket 4.1 19:32:38 10° WNW 19:35:17 17° WSW 19:37:56 10° SSW
Cosmos 1371 Rocket 4.3 19:31:33 10° NNW 19:35:56 61° NW 19:35:56 61° NW
Cosmos 923 Rocket 4.3 19:33:07 10° SW 19:37:52 63° W 19:37:52 63° W
Cosmos 1680 Rocket 4.4 19:39:25 10° SSW 19:42:54 43° SW 19:42:54 43° SW
Meteor 1-26 Rocket 4.5 19:39:39 10° NNW 19:44:37 64° NW 19:44:37 64° NW
Cosmos 1867 4.1 19:43:27 10° NW 19:47:57 56° WNW 19:47:57 56° WNW
CZ-4C R/B 3.0 19:48:03 10° NW 19:53:53 60° N 19:53:53 60° N
Cosmos 1655 Rocket 4.2 19:48:52 10° SSW 20:01:01 13° N 20:01:36 10° N
Lacrosse 5 3.6 20:03:13 10° WNW 20:05:45 29° NW 20:05:45 29° NW
ATLAS 5 CENTAUR R/B 3.2 20:06:36 10° NW 20:10:31 45° NW 20:10:31 45° NW
ATLAS 3B R/B 3.6 20:15:50 10° NW 20:20:25 39° NNW 20:20:25 39° NNW
Cosmos 1943 Rocket 3.9 20:23:11 10° NW 20:25:50 28° NW 20:25:50 28° NW
CENTAUR R/B 4.4 20:57:55 10° NW 21:01:54 26° NNW 21:01:54 26° NNW
